sat.trackr.live / text

‹ back to catalog

STARLINK-35034

NORAD 65431 · 2025-192AD

PAYLOAD ACTIVE UNKNOWN

§ Identity

Operator
Country
US
Launch date
2025-08-31
Launch site
AFETR
Launch vehicle
Mass (kg)
RCS (m²)

Purposes: comms

External: N2YO · Heavens-Above · Gunter

§ Orbital elements

Epoch: 2026-05-24T23:45:32.471424Z

Period
94.10 min
Inclination
53.1591°
Eccentricity
0.0000972
Mean motion
15.30208939 rev/d
Perigee alt
474.5 km
Apogee alt
475.9 km
Semi-major
6,853.3 km
B*
4.8679e-4
RAAN
238.1120°
Arg perigee
76.1042°
Mean anomaly
284.0067°
Rev number
4,106

§ Raw data

STARLINK-350341 65431U 25192AD  26144.98995916  .00014090  00000+0  48679-3 0  99912 65431  53.1591 238.1120 0000972  76.1042 284.0067 15.30208939 41068

JSON: /api/v1/satellites/65431 · /tle

For live sub-satellite position, see the globe view (requires WebGL).

§ Visibility from observer

Set your observer location to see the next 7 days of passes ≥ 10°. The values pass through the URL so the page stays shareable.

No JS? Fill the form by hand. The geolocation button needs JavaScript.